This demonstration page uses our WeatherBlox Daily Observations layout. Learn more.

Left ArrowRight Arrow

38.83388, -104.82136

Hourly Observations for March 13, 2021

Temp ( °F °C ) Dew Point ( °F °C ) Humidity (%) Winds ( mph kmh ) Pressure ( in mb ) Visibility ( mi km ) Precip ( " mm )
12:58 am 00:58 Mostly Cloudy with Freezing Fog 30 -1.3 29 -1.4 99 99 SSE 8 13 29.91 1013 N/A 0.00 0.00
1:58 am 01:58 Mostly Cloudy with Freezing Fog 29 -1.5 29 -1.6 99 99 SSE 9 15 29.90 1013 N/A 0.01 0.25
2:58 am 02:58 Mostly Cloudy with Freezing Fog 29 -1.7 29 -1.7 100 100 Calm 29.89 1012 N/A 0.00 0.00
3:58 am 03:58 Mostly Cloudy with Freezing Fog 29 -1.5 29 -1.6 99 99 Calm 29.82 1010 N/A 0.00 0.00
4:58 am 04:58 Mostly Cloudy with Freezing Fog 29 -1.7 29 -1.8 99 99 Calm 29.84 1011 N/A 0.01 0.25
5:58 am 05:58 Mostly Cloudy with Freezing Fog 29 -1.6 29 -1.6 100 100 Calm 29.84 1011 1 2 0.00 0.00
6:02 am 06:02 Mostly Cloudy with Light Snow 28 -2 28 -2 100 100 Calm 29.84 1011 1 2 0.00 0.00
6:04 am 06:04 Mostly Cloudy with Freezing Fog 28 -2 28 -2 100 100 Calm 29.84 1011 0 0 0.00 0.00
6:05 am 06:05 Mostly Cloudy with Light Snow 28 -2 28 -2 100 100 Calm 29.84 1011 0 0 0.00 0.00
6:06 am 06:06 Mostly Cloudy with Freezing Fog 28 -2 28 -2 100 100 Calm 29.84 1011 0 0 0.00 0.00
6:07 am 06:07 Mostly Cloudy with Light Snow 28 -2 28 -2 100 100 Calm 29.84 1011 3 5 0.00 0.00
6:08 am 06:08 Mostly Cloudy with Freezing Fog 28 -2 28 -2 100 100 Calm 29.84 1011 3 5 0.00 0.00
6:23 am 06:23 Mostly Cloudy with Mist and Fog 28 -2 28 -2 100 100 Calm 29.83 1010 5 8 0.00 0.00
6:58 am 06:58 Mostly Cloudy with Freezing Fog 29 -1.6 29 -1.6 100 100 Calm 29.85 1011 0 0 0.00 0.00
7:43 am 07:43 Mostly Cloudy with Mist and Fog 30 -1 30 -1 100 100 Calm 29.80 1009 7 11 0.00 0.00
7:58 am 07:58 Mostly Cloudy with Freezing Fog 29 -1.4 29 -1.4 100 100 Calm 29.82 1010 0 0 0.01 0.25
8:29 am 08:29 Mostly Cloudy with Light Snow Showers 30 -1 30 -1 100 100 Calm 29.82 1010 1 2 0.00 0.00
8:38 am 08:38 Mostly Cloudy with Freezing Fog 30 -1 30 -1 100 100 Calm 29.82 1010 1 2 0.00 0.00
8:39 am 08:39 Mostly Cloudy with Light Snow 30 -1 30 -1 100 100 Calm 29.82 1010 1 2 0.00 0.00
8:42 am 08:42 Mostly Cloudy with Freezing Fog 30 -1 30 -1 100 100 Calm 29.81 1009 1 2 0.00 0.00
8:43 am 08:43 Mostly Cloudy with Light Snow 30 -1 30 -1 100 100 Calm 29.80 1009 1 2 0.00 0.00
8:44 am 08:44 Mostly Cloudy with Freezing Fog 30 -1 30 -1 100 100 Calm 29.80 1009 1 2 0.00 0.00
8:45 am 08:45 Mostly Cloudy with Light Snow 30 -1 30 -1 100 100 Calm 29.80 1009 1 2 0.00 0.00
8:46 am 08:46 Mostly Cloudy with Freezing Fog 30 -1 30 -1 100 100 Calm 29.80 1009 1 2 0.00 0.00
8:50 am 08:50 Mostly Cloudy with Light Snow 30 -1 30 -1 100 100 Calm 29.80 1009 0 0 0.00 0.00
8:53 am 08:53 Mostly Cloudy with Freezing Fog 30 -1 30 -1 100 100 Calm 29.80 1009 1 2 0.00 0.00
8:54 am 08:54 Mostly Cloudy with Light Snow 30 -1 30 -1 100 100 Calm 29.80 1009 1 2 0.00 0.00
8:58 am 08:58 Mostly Cloudy with Light Snow 30 -1 30 -1 100 100 Calm 29.80 1009 1 2 0.01 0.25
8:59 am 08:59 Mostly Cloudy with Freezing Fog 30 -1 30 -1 100 100 Calm 29.80 1009 1 2 0.00 0.00
9:00 am 09:00 Mostly Cloudy with Light Snow 30 -1 30 -1 100 100 Calm 29.80 1009 1 2 0.00 0.00
9:03 am 09:03 Mostly Cloudy with Freezing Fog 30 -1 30 -1 100 100 Calm 29.79 1009 1 2 0.00 0.00
9:09 am 09:09 Mostly Cloudy with Light Snow 30 -1 30 -1 100 100 Calm 29.79 1009 1 2 0.00 0.00
9:10 am 09:10 Mostly Cloudy with Freezing Fog 30 -1 30 -1 100 100 Calm 29.79 1009 0 0 0.00 0.00
9:15 am 09:15 Mostly Cloudy with Freezing Fog 30 -1 30 -1 100 100 Calm 29.79 1009 1 1 0.00 0.00
9:35 am 09:35 Mostly Cloudy with Freezing Fog 30 -1 30 -1 100 100 Calm 29.78 1008 1 2 0.00 0.00
9:50 am 09:50 Mostly Cloudy with Mist and Fog 30 -1 30 -1 100 100 Calm 29.79 1009 3 5 0.00 0.00
9:58 am 09:58 Mostly Cloudy with Mist and Fog 30 -0.9 30 -1 99 99 Calm 29.78 1008 5 8 0.00 0.00
10:13 am 10:13 Mostly Cloudy with Freezing Fog 30 -1 30 -1 100 100 Calm 29.80 1009 1 2 0.00 0.00
10:18 am 10:18 Mostly Cloudy with Freezing Fog 30 -1 30 -1 100 100 Calm 29.80 1009 1 2 0.00 0.00
10:47 am 10:47 Mostly Cloudy with Heavy Snow 30 -1 30 -1 100 100 Calm 29.78 1008 N/A 0.00 0.00
10:48 am 10:48 Mostly Cloudy with Freezing Fog 30 -1 30 -1 100 100 Calm 29.78 1008 N/A 0.00 0.00
10:58 am 10:58 Mostly Cloudy with Freezing Fog 31 -0.6 31 -0.6 100 100 Calm 29.77 1008 1 2 0.02 0.51
11:33 am 11:33 Cloudy with Freezing Fog 30 -1 30 -1 100 100 Calm 29.75 1008 0 0 0.00 0.00
11:48 am 11:48 Mostly Cloudy with Freezing Fog 30 -1 30 -1 100 100 Calm 29.75 1008 1 2 0.00 0.00
11:54 am 11:54 Mostly Cloudy with Heavy Snow 30 -1 30 -1 100 100 Calm 29.75 1007 1 2 0.00 0.00
11:58 am 11:58 Mostly Cloudy with Heavy Snow 31 -0.7 31 -0.7 100 100 Calm 29.75 1008 1 2 0.04 1.02
12:08 pm 12:08 Mostly Cloudy with Heavy Rain/Snow 30 -1 30 -1 100 100 Calm 29.73 1007 0 0 0.00 0.00
12:09 pm 12:09 Mostly Cloudy with Freezing Fog 30 -1 30 -1 100 100 Calm 29.75 1007 0 0 0.00 0.00
12:13 pm 12:13 Mostly Cloudy with Heavy Rain/Snow 30 -1 30 -1 100 100 Calm 29.75 1008 3 5 0.00 0.00
12:14 pm 12:14 Mostly Cloudy with Freezing Fog 30 -1 30 -1 100 100 Calm 29.78 1008 3 5 0.00 0.00
12:24 pm 12:24 Mostly Cloudy with Freezing Fog 30 -1 30 -1 100 100 Calm 29.72 1007 0 0 0.00 0.00
12:57 pm 12:57 Mostly Cloudy with Patchy Fog 32 0 32 0 100 100 N 13 20 29.68 1005 1 2 0.00 0.00
12:58 pm 12:58 Mostly Cloudy with Patchy Fog 31 -0.5 31 -0.5 100 100 N 14 22 29.68 1005 1 2 0.09 2.29
1:07 pm 13:07 Mostly Cloudy with Light Rain 32 0 32 0 100 100 N 16 26 29.67 1005 3 5 0.00 0.00
1:12 pm 13:12 Mostly Cloudy with Light Rain 32 0 30 -1 93 93 N 15 24 29.67 1005 4 6 0.00 0.00
1:27 pm 13:27 Mostly Cloudy with Light Rain 30 -1 30 -1 100 100 N 14 22 29.67 1005 1 1 0.00 0.00
1:32 pm 13:32 Mostly Cloudy with Light Rain 30 -1 30 -1 100 100 NNE 10 17 29.67 1005 5 8 0.00 0.00
1:34 pm 13:34 Mostly Cloudy with Light Snow 30 -1 30 -1 100 100 N 15 24 29.66 1005 5 8 0.00 0.00
1:58 pm 13:58 Mostly Cloudy with Light Snow 30 -1 30 -1 100 100 N 13 20 29.65 1004 3 5 0.04 1.02
2:08 pm 14:08 Mostly Cloudy with Light Snow 30 -1 30 -1 100 100 NNW 16 26 29.65 1004 1 2 0.00 0.00
2:58 pm 14:58 Cloudy with Light Rain/Snow 30 -0.9 30 -0.9 100 100 N 13 20 29.63 1003 3 5 0.00 0.00
3:04 pm 15:04 Cloudy with Rain/Snow 30 -1 30 -1 100 100 N 13 20 29.62 1003 2 2 0.00 0.00
3:09 pm 15:09 Cloudy with Rain/Snow 30 -1 30 -1 100 100 NNW 17 28 29.64 1004 7 11 0.00 0.00
3:19 pm 15:19 Windy with Snow Likely 30 -1 30 -1 100 100 NNW 20 31 29.62 1003 1 1 0.00 0.00
3:23 pm 15:23 Cloudy with Rain/Snow 30 -1 30 -1 100 100 N 16 26 29.63 1003 5 8 0.00 0.00
3:24 pm 15:24 Cloudy with Wintry Mix 30 -1 30 -1 100 100 N 17 28 29.64 1004 5 8 0.00 0.00
3:34 pm 15:34 Cloudy with Wintry Mix 30 -1 30 -1 100 100 NNW 18 30 29.63 1003 1 1 0.00 0.00
3:36 pm 15:36 Cloudy with Snow 30 -1 30 -1 100 100 N 13 20 29.63 1003 3 5 0.00 0.00
3:51 pm 15:51 Mostly Cloudy with Snow 30 -1 30 -1 100 100 N 18 30 29.61 1003 3 5 0.00 0.00
3:58 pm 15:58 Mostly Cloudy with Snow 29 -1.4 29 -1.4 100 100 N 13 20 29.63 1003 1 1 0.01 0.25
3:59 pm 15:59 Mostly Cloudy with Snow 30 -1 30 -1 100 100 N 14 22 29.64 1004 1 1 0.00 0.00
4:04 pm 16:04 Mostly Cloudy with Snow 30 -1 30 -1 100 100 NNW 18 30 29.62 1003 5 8 0.00 0.00
4:17 pm 16:17 Cloudy with Light Snow 28 -2 28 -2 100 100 NNW 18 30 29.64 1004 7 11 0.00 0.00
4:24 pm 16:24 Cloudy with Snow 28 -2 28 -2 100 100 NNW 13 20 29.67 1005 5 8 0.00 0.00
4:39 pm 16:39 Cloudy with Mist and Fog 28 -2 28 -2 100 100 N 15 24 29.67 1005 5 8 0.00 0.00
4:58 pm 16:58 Cloudy with Freezing Fog 28 -2.1 28 -2.1 100 100 NNW 17 28 29.63 1003 3 5 0.02 0.51
5:28 pm 17:28 Mostly Cloudy with Mist and Fog 28 -2 28 -2 100 100 NNW 16 26 29.64 1004 2 3 0.00 0.00
5:30 pm 17:30 Mostly Cloudy with Light Snow 28 -2 28 -2 100 100 NNW 18 30 29.63 1003 2 3 0.00 0.00
5:33 pm 17:33 Mostly Cloudy with Mist and Fog 28 -2 28 -2 100 100 NNW 16 26 29.63 1003 2 4 0.00 0.00
5:37 pm 17:37 Mostly Cloudy with Light Snow 28 -2 28 -2 100 100 N 15 24 29.64 1004 2 3 0.00 0.00
5:38 pm 17:38 Mostly Cloudy with Mist and Fog 28 -2 28 -2 100 100 N 17 28 29.64 1004 2 3 0.00 0.00
5:40 pm 17:40 Mostly Cloudy with Light Snow 28 -2 28 -2 100 100 N 18 30 29.64 1004 2 3 0.00 0.00
5:45 pm 17:45 Mostly Cloudy with Light Snow 27 -3 27 -3 100 100 NNW 17 28 29.64 1004 5 8 0.00 0.00
5:50 pm 17:50 Mostly Cloudy with Light Snow 27 -3 27 -3 100 100 NNW 15 24 29.65 1004 3 4 0.00 0.00
5:58 pm 17:58 Cloudy with Light Snow 27 -2.7 27 -2.8 99 99 NNW 18 30 29.63 1003 3 4 0.00 0.00
6:18 pm 18:18 Windy with Snow Likely 27 -3 27 -3 100 100 NW 24 39 29.61 1003 2 4 0.00 0.00
6:25 pm 18:25 Cloudy with Light Freezing Rain 27 -3 27 -3 100 100 NW 23 37 29.61 1003 3 4 0.00 0.00
6:30 pm 18:30 Cloudy with Mist and Fog 27 -3 27 -3 100 100 NW 24 39 29.59 1002 3 5 0.00 0.00
6:40 pm 18:40 Cloudy with Mist and Fog 27 -3 27 -3 100 100 NW 21 33 29.59 1002 3 5 0.00 0.00
6:58 pm 18:58 Mostly Cloudy 27 -2.9 27 -2.9 100 100 NNW 16 26 29.59 1002 10 16 0.00 0.00
7:33 pm 19:33 Mostly Cloudy 27 -3 27 -3 100 100 NW 17 28 29.62 1003 10 16 0.00 0.00
7:50 pm 19:50 Cloudy 27 -3 27 -3 100 100 NW 18 30 29.62 1003 4 6 0.00 0.00
7:51 pm 19:51 Cloudy with Mist and Fog 27 -3 27 -3 100 100 NW 21 33 29.61 1003 3 5 0.00 0.00
7:52 pm 19:52 Windy with Snow Likely 27 -3 27 -3 100 100 NW 22 35 29.62 1003 3 5 0.00 0.00
7:54 pm 19:54 Cloudy with Mist and Fog 27 -3 27 -3 100 100 NNW 22 35 29.61 1003 3 4 0.00 0.00
7:58 pm 19:58 Cloudy with Mist and Fog 26 -3.4 26 -3.4 100 100 NNW 20 31 29.62 1003 2 4 0.00 0.00
8:13 pm 20:13 Cloudy with Mist and Fog 27 -3 27 -3 100 100 NNW 18 30 29.60 1002 1 2 0.00 0.00
8:28 pm 20:28 Cloudy with Mist and Fog 27 -3 27 -3 100 100 NNW 17 28 29.59 1002 1 2 0.00 0.00
8:37 pm 20:37 Windy with Snow Likely 27 -3 27 -3 100 100 NNW 20 31 29.59 1002 1 2 0.00 0.00
8:38 pm 20:38 Cloudy with Mist and Fog 27 -3 25 -4 93 93 NNW 21 33 29.59 1002 1 2 0.00 0.00

Powered by AerisWeather